Regional Weather Roundup
Issued by NWS

Home | Current Version | Previous Version | Text Only | Print | Product List | Glossary Off
Versions: 1 2 3 4 5 6 7 8 9 10 11 12 13 14 15 16 17 18 19 20 21 22 23 24 25 26 27 28 29 30 31 32 33 34 35 36 37 38 39 40 41 42 43 44 45 46 47 48 49 50

000
ASUS45 KTFX 032019
RWRMT
MONTANA HOURLY WEATHER ROUNDUP
NATIONAL WEATHER SERVICE GREAT FALLS MT
119 PM MST TUE MAR 3 2015

NOTE: "FAIR" INDICATES FEW OR NO CLOUDS BELOW 12000 FEET WITH NO
SIGNIFICANT WEATHER AND/OR OBSTRUCTIONS TO VISIBILITY.

* THESE STATIONS ARE NOT UNDER NWS QUALITY CONTROL. THEY DO NOT
   REPORT WEATHER SUCH AS PRECIPITATION OR FOG.

MTZ001>007-043-032100-
WEST OF THE DIVIDE
CITY           SKY/WX    TMP DP  RH WIND       PRES   REMARKS
KALISPELL      SUNNY     27   0  31 CALM      30.12F
MISSOULA       SUNNY     23   1  38 W9        30.12F WCI  13
BUTTE          SUNNY     14  -2  49 NW3       29.94F
MULLAN PASS    PTSUNNY   18  10  71 VRB5      29.94F WCI  11
* ANACONDA     SUNNY     16  -2  45 N/A        N/A
* ESSEX        N/A       20  -2  38 W3G9       N/A
* EUREKA APT   SUNNY     27  -2  28 NW5       30.14F WCI  21
* HAMILTON APT PTCLDY    25   3  38 S5        30.07F WCI  19
* LIBBY APT    SUNNY     28   9  45 CALM      30.15F
* LINCOLN      N/A       20  -4  34 SE5G10     N/A   WCI  13
* LOOKOUT PASS N/A       23   6  48 NW2G8      N/A
* POLSON       N/A       21   6  52 NW2        N/A
* RONAN APT    PTCLDY    25   7  46 S6         N/A   WCI  18
* SEELEY LAKE  N/A       21  -6  30 SE3G8      N/A
* THOMP F APT  SUNNY     18  -2  41 W6G25      N/A   WCI  10
* YAAK HILL    N/A       32   8  36 SW2        N/A
$$

MTZ008-052>055-032100-
SOUTHWEST MONTANA
CITY           SKY/WX    TMP DP  RH WIND       PRES   REMARKS
BOZEMAN        SUNNY     12   3  67 SW3       30.03F
DILLON         SUNNY     14   1  56 VRB3      29.96F
* W YELLOWSTON SUNNY     16  -5  39 NE2G10     N/A
* THREE FORKS  SUNNY     19  -4  36 N/A        N/A
* BOULDER HILL N/A       13  -4  46 SW5        N/A   WCI   5
* MONIDA PASS  N/A       12   4  70 W15        N/A   WCI  -4
* RAYNOLDS PAS N/A        4   4 100 VRB7       N/A   WCI  -8
* WHITEHALL    N/A       19  -4  36 SE6G13     N/A   WCI  11
* WISE RIVER   N/A       18  -1  43 W5         N/A   WCI  11
$$

MTZ009>010-012-014-046-048-049-054-032100-
EAST SLOPES AND CENTRAL MONTANA
CITY           SKY/WX    TMP DP  RH WIND       PRES   REMARKS
CUT BANK       SUNNY     14   1  56 VRB7      30.05F WCI   4
GREAT FALLS    SUNNY     12   1  61 S6        30.08F WCI   2
HELENA         SUNNY     18   0  45 SE3       30.05F
MALMSTROM AFB  SUNNY     12   1  61 S8        30.11F
* CONRAD       SUNNY     12   0  58 S9         N/A
* DEARBORN     N/A       15  -1  49 S1         N/A
* EAST GLACIER N/A        3  -5  69 SE2        N/A
* MONARCH      N/A        8  -9  45 NW5        N/A   WCI  -1
* PENDROY      N/A        9  -1  63 S11        N/A   WCI  -5
* ROGERS PASS  N/A       11  -4  50 SE12G17    N/A   WCI  -4
* SWEET GRASS  N/A       10  -3  55 NW7        N/A   WCI  -1
* WHITE SULPH  N/A       13  -7  40 NW5        N/A   WCI   5
$$

MTZ011-013-016-021-035-040-045-047-050-051-032100-
NORTH CENTRAL MONTANA
CITY           SKY/WX    TMP DP  RH WIND       PRES   REMARKS
HAVRE          SUNNY     18  -9  29 NW17G28   30.13F WCI   3
LEWISTOWN      SUNNY     12  -6  44 NW14G24   30.03F WCI  -4
* N BAR RANCH  SUNNY      9  -8  45 NW24      29.99F WCI -12
* CHINOOK      SUNNY     16  -8  33 W18G29    30.12F
* FORT BENTON  SUNNY     18  -2  41 W12       30.14F WCI   5
* CHESTER      N/A       15  -7  37 NW14G24    N/A
* DENTON       N/A       13  -5  44 NW17G24    N/A   WCI  -4
* GEYSER       N/A       11  -3  53 W13        N/A   WCI  -4
* JUDITH GAP   N/A        7  -7  52 N24G31     N/A   WCI -14
* LOMA         N/A       17  -3  41 W9G20      N/A   WCI   6
$$

MTZ017>020-022>027-061-062-032100-
NORTHEAST MONTANA
CITY           SKY/WX    TMP DP  RH WIND       PRES   REMARKS
GLASGOW        PTSUNNY   14  -8  36 W21G28    30.08F WCI  -4
GLENDIVE       PTSUNNY   12  -6  44 W24G31    30.04F WCI  -8
JORDAN         SUNNY     16  -6  37 NW24G31   30.09F WCI  -2
SIDNEY         CLOUDY    12  -6  44 W23G29    30.07F WCI  -7
WOLF POINT     PTSUNNY   16  -4  40 NW21G36   30.09F WCI  -1
* BEAVER HILL  N/A        9  -4  55 NW26G35    N/A   WCI -12
* CIRCLE       N/A       12  -2  53 W11G22     N/A   WCI  -2
* LINDSAY DVD  N/A       10  -4  53 W29G34     N/A   WCI -12
* NAVAJO       N/A        3  -7  63 NW28       N/A   WCI -21
* PLENTYWOOD A SUNNY      3  -4  72 NW28G35   30.00F VSB 2    WCI -21
* POPLAR APT   SUNNY     12  -6  44 W20G28    30.07F WCI  -6
* SACO         N/A       12  -8  40 W20G28     N/A   WCI  -6
* SCOBEY APT   SUNNY      7  -9  47 W23G33     N/A   WCI -14
$$

MTZ028>042-056>058-032100-
SOUTHCENTRAL AND SOUTHEAST MONTANA
CITY           SKY/WX    TMP DP  RH WIND       PRES   REMARKS
BAKER          CLOUDY    14  -4  44 NW26G38   30.00F WCI  -6
BILLINGS       SUNNY     16  -6  37 NW14      30.05F WCI   2
LIVINGSTON     PTCLDY    16  -2  45 NW8       29.98F WCI   5
MILES CITY     PTSUNNY   16  -4  40 NW21G31   30.08F WCI  -1
* BIG TIMBER A PTCLDY    16  -4  40 W13       29.98F WCI   2
* FORSYTH APT  SUNNY     16  -6  37 W20G26    30.08F WCI  -1
* LAUREL APT   SUNNY     18  -6  34 W13G18     N/A   WCI   5
* ROUNDUP APT  SUNNY     19 -11  25 N13G20     N/A   WCI   6
* ALZADA       N/A       11   0  61 W14G20     N/A   WCI  -5
* HYSHAM       N/A       13  -4  46 W17G26     N/A   WCI  -4
* REED POINT   N/A       17   3  54 W9G16      N/A   WCI   6
$$

REGIONAL REPORTS...DAKOTAS
CITY           SKY/WX    TMP DP  RH WIND       PRES   REMARKS
WILLISTON      PTSUNNY   10  -2  58 NW22G29   30.05F WCI -10
DICKINSON      CLOUDY    12  -6  44 NW28G38   29.95F WCI  -9
BEACH          PTSUNNY   10  -2  58 NW29G37   30.00F WCI -12
CROSBY         PTCLDY     3  -6  66 NW25G37   30.03F WCI -20
TIOGA          LGT SNOW   1  -4  79 NW33G39   30.00F VSB 2 1/2 WCI -25
WATFORD CITY   LGT SNOW   9  -2  61 NW25G32   30.00F WCI -12
BISMARCK       PTSUNNY   14  -2  49 NW21G35   30.01F WCI  -4
GRAND FORKS    CLOUDY     9  -2  61 NW23G33   29.90S WCI -11
FARGO          LGT SNOW  12   0  58 NW26G33   29.91S WCI  -8
BUFFALO SD     PTCLDY    14   0  53 W28G37    29.92F WCI  -6
RAPID CITY     CLOUDY    16   7  67 N20G28    29.98F WCI  -1
$$

REGIONAL REPORTS...WYOMING/IDAHO/WASHINGTON
CITY           SKY/WX    TMP DP  RH WIND       PRES   REMARKS
GILLETTE       CLOUDY    10   1  67 NW13      29.96F WCI  -5
SHERIDAN       PTSUNNY   10   0  64 NW9       30.02F WCI  -3
CODY           PTCLDY    10   0  64 N6        29.93F
YELLOWSTONE LA SUNNY     12  -4  48 VRB3      29.75F
SALMON         PTCLDY    28   3  34 CALM      29.99F
MULLAN PASS    PTSUNNY   18  10  71 VRB5      29.94S WCI  11
SAND POINT     SUNNY     32  10  40 SE5       30.17F WCI  27
SPOKANE        SUNNY     34  16  48 VRB3      30.16S
$$

REGIONAL REPORTS...ALBERTA
CITY           SKY/WX    TMP DP  RH WIND       PRES   REMARKS
CALGARY        N/A       14  -8  36 N13G20    30.07F
LETHBRIDGE     SUNNY     14   0  53 SW10G20   30.13F WCI   1
MEDICINE HAT   SUNNY     16  -4  40 W21G30    30.14F WCI  -1
EDMONTON       SUNNY     10  -6  48 NW13      30.15F WCI  -5
WATERTON GATE  N/A       10   0  64 NE7        N/A   WCI  -1
CARDSTON       N/A       12   1  61 SE5        N/A   WCI   4
MILK RIVER     N/A       10  -2  58 W9         N/A   WCI  -3
$$

REGIONAL REPORTS...SASKATCHEWAN
CITY           SKY/WX    TMP DP  RH WIND       PRES   REMARKS
SWIFT CURRENT  PTSUNNY    5  -6  60 W26G36    29.97F WCI -18
MOOSE JAW      SNOW       3  -4  72 NW26      30.03F WCI -20
REGINA         SNOW       1  -8  65 NW25G31   29.99F WCI -23
VAL MARIE      N/A       12  -6  44 NW21G28    N/A   WCI  -7
ASSINIBOIA     N/A        3  -8  60 NW29G37    N/A   WCI -21
CORONACH       N/A        5  -6  60 NW26G33    N/A   WCI -18

$$




USA.gov is the U.S. government's official web portal to all federal, state and local government web resources and services.